QPF
0.00 0.00 0.00 0.00 0.00 0.00 0.00 0.00 0.00 0.00 0.00 0.00 0.00 0.00 0.00 0.00 0.00 0.00 0.00 0.00 0.00 0.00 0.00 0.00 0.00 0.00 0.00 0.00 0.00 0.00 0.00 0.01 0.01 0.01 0.02 0.03 0.03 0.03 0.03 0.04 0.04 0.06 0.07 0.07
0.00 0.01 0.00 0.00 0.00 0.00 0.00 0.00 0.00 0.00 0.00 0.00 0.00 0.00 0.00 0.00 0.00 0.00 0.00 0.00 0.00 0.00 0.00 0.00 0.00 0.00 0.00 0.00 0.00 0.00 0.01 0.01 0.01 0.02 0.03 0.03 0.03 0.04 0.05 0.05 0.05 0.07 0.09 0.09
0.00 0.01 0.00 0.00 0.00 0.00 0.00 0.00 0.00 0.00 0.00 0.00 0.00 0.00 0.00 0.00 0.00 0.00 0.00 0.00 0.00 0.00 0.00 0.00 0.00 0.00 0.00 0.00 0.00 0.01 0.01 0.01 0.02 0.03 0.03 0.03 0.03 0.04 0.05 0.07 0.08 0.09 0.09 0.09
0.00 0.00 0.01 0.01 0.00 0.00 0.00 0.00 0.00 0.00 0.00 0.00 0.00 0.00 0.00 0.00 0.00 0.00 0.00 0.00 0.00 0.00 0.00 0.00 0.00 0.00 0.00 0.00 0.01 0.01 0.02 0.02 0.03 0.04 0.04 0.05 0.05 0.06 0.08 0.09 0.10 0.10 0.09 0.09
0.00 0.00 0.00 0.00 0.00 0.00 0.00 0.00 0.00 0.00 0.00 0.00 0.00 0.00 0.00 0.00 0.00 0.00 0.00 0.00 0.00 0.00 0.00 0.00 0.00 0.01 0.01 0.01 0.01 0.02 0.02 0.03 0.04 0.05 0.05 0.06 0.07 0.08 0.10 0.10 0.10 0.10 0.10 0.09
0.00 0.00 0.00 0.00 0.00 0.00 0.00 0.00 0.00 0.00 0.00 0.00 0.00 0.00 0.00 0.00 0.00 0.00 0.00 0.00 0.00 0.00 0.00 0.00 0.01 0.01 0.01 0.01 0.02 0.03 0.03 0.03 0.04 0.05 0.06 0.06 0.07 0.08 0.09 0.10 0.10 0.10 0.09 0.10
0.00 0.00 0.00 0.00 0.00 0.00 0.00 0.00 0.00 0.00 0.00 0.00 0.00 0.00 0.00 0.00 0.00 0.00 0.00 0.00 0.00 0.00 0.00 0.01 0.01 0.01 0.02 0.02 0.03 0.03 0.03 0.03 0.03 0.05 0.05 0.06 0.07 0.09 0.09 0.09 0.10 0.10 0.11 0.13
0.00 0.00 0.00 0.00 0.00 0.00 0.00 0.00 0.00 0.00 0.00 0.00 0.00 0.00 0.00 0.00 0.00 0.00 0.00 0.00 0.00 0.00 0.00 0.01 0.01 0.02 0.02 0.02 0.02 0.03 0.03 0.03 0.03 0.04 0.04 0.04 0.08 0.09 0.09 0.09 0.10 0.10 0.12 0.13
0.00 0.00 0.00 0.00 0.00 0.00 0.00 0.00 0.00 0.00 0.00 0.00 0.00 0.00 0.00 0.00 0.00 0.00 0.00 0.00 0.00 0.00 0.01 0.01 0.01 0.02 0.02 0.02 0.02 0.03 0.03 0.03 0.03 0.04 0.06 0.07 0.09 0.09 0.09 0.10 0.11 0.11 0.11 0.12
0.00 0.00 0.00 0.00 0.00 0.00 0.00 0.00 0.00 0.00 0.00 0.00 0.00 0.00 0.00 0.00 0.00 0.00 0.00 0.00 0.00 0.01 0.01 0.01 0.01 0.01 0.02 0.02 0.02 0.03 0.04 0.04 0.04 0.04 0.06 0.08 0.10 0.10 0.10 0.10 0.11 0.11 0.11 0.11
0.00 0.00 0.00 0.00 0.00 0.00 0.00 0.00 0.00 0.00 0.00 0.00 0.00 0.00 0.00 0.00 0.00 0.00 0.00 0.00 0.01 0.01 0.01 0.01 0.01 0.01 0.01 0.02 0.03 0.04 0.04 0.04 0.04 0.05 0.06 0.08 0.09 0.09 0.07 0.08 0.07 0.06 0.08 0.10
0.00 0.00 0.00 0.00 0.00 0.00 0.00 0.00 0.00 0.00 0.00 0.00 0.00 0.00 0.00 0.00 0.00 0.00 0.00 0.00 0.01 0.01 0.01 0.01 0.01 0.01 0.01 0.02 0.03 0.04 0.04 0.04 0.05 0.05 0.06 0.07 0.08 0.07 0.05 0.03 0.02 0.01 0.02 0.03
0.00 0.00 0.00 0.00 0.00 0.00 0.00 0.00 0.00 0.00 0.00 0.00 0.00 0.00 0.00 0.00 0.00 0.00 0.00 0.00 0.01 0.01 0.01 0.01 0.01 0.01 0.01 0.02 0.03 0.04 0.04 0.04 0.05 0.06 0.07 0.07 0.07 0.09 0.09 0.07 0.03 0.02 0.01 0.01
0.00 0.00 0.00 0.00 0.00 0.00 0.00 0.00 0.00 0.00 0.00 0.00 0.00 0.00 0.00 0.00 0.00 0.00 0.00 0.00 0.01 0.01 0.01 0.01 0.01 0.01 0.01 0.02 0.03 0.03 0.03 0.03 0.04 0.06 0.07 0.07 0.07 0.08 0.10 0.10 0.09 0.07 0.04 0.02
0.00 0.00 0.00 0.00 0.00 0.00 0.00 0.00 0.00 0.00 0.00 0.00 0.00 0.00 0.00 0.00 0.00 0.00 0.00 0.00 0.00 0.01 0.01 0.01 0.01 0.01 0.01 0.02 0.03 0.03 0.03 0.03 0.03 0.05 0.06 0.07 0.06 0.06 0.07 0.08 0.09 0.09 0.08 0.06
0.00 0.00 0.00 0.00 0.00 0.00 0.00 0.00 0.00 0.00 0.00 0.00 0.00 0.00 0.00 0.00 0.00 0.00 0.00 0.00 0.01 0.01 0.01 0.01 0.01 0.01 0.01 0.02 0.02 0.03 0.03 0.02 0.02 0.03 0.05 0.07 0.06 0.06 0.07 0.08 0.09 0.10 0.09 0.08
0.00 0.00 0.00 0.00 0.00 0.00 0.00 0.00 0.00 0.00 0.00 0.00 0.00 0.00 0.00 0.00 0.00 0.00 0.00 0.00 0.01 0.01 0.01 0.01 0.01 0.01 0.01 0.02 0.02 0.02 0.02 0.02 0.02 0.03 0.05 0.05 0.06 0.06 0.07 0.09 0.10 0.09 0.08 0.06
0.00 0.00 0.00 0.00 0.00 0.00 0.00 0.00 0.00 0.00 0.00 0.00 0.00 0.00 0.00 0.00 0.00 0.00 0.00 0.00 0.01 0.01 0.01 0.00 0.00 0.01 0.01 0.01 0.01 0.02 0.02 0.02 0.03 0.04 0.04 0.03 0.03 0.06 0.06 0.07 0.07 0.06 0.06 0.05
0.00 0.00 0.00 0.00 0.00 0.00 0.00 0.00 0.00 0.00 0.00 0.00 0.00 0.00 0.00 0.00 0.00 0.00 0.00 0.00 0.01 0.01 0.00 0.00 0.00 0.01 0.01 0.01 0.01 0.02 0.03 0.02 0.03 0.03 0.04 0.03 0.05 0.06 0.05 0.05 0.06 0.06 0.05 0.06
0.00 0.00 0.00 0.00 0.00 0.00 0.00 0.00 0.00 0.00 0.00 0.00 0.00 0.00 0.00 0.00 0.00 0.00 0.00 0.01 0.01 0.00 0.00 0.00 0.00 0.00 0.01 0.00 0.01 0.02 0.04 0.04 0.03 0.03 0.03 0.04 0.05 0.05 0.04 0.04 0.06 0.05 0.04 0.05
0.00 0.00 0.00 0.00 0.00 0.00 0.00 0.00 0.00 0.00 0.00 0.00 0.00 0.00 0.00 0.00 0.00 0.00 0.00 0.01 0.01 0.00 0.00 0.00 0.00 0.00 0.00 0.00 0.01 0.02 0.04 0.05 0.04 0.03 0.04 0.06 0.06 0.05 0.04 0.05 0.05 0.06 0.05 0.05
0.00 0.00 0.00 0.00 0.00 0.00 0.00 0.00 0.00 0.00 0.00 0.00 0.00 0.00 0.00 0.00 0.00 0.00 0.00 0.00 0.00 0.00 0.00 0.00 0.00 0.00 0.00 0.00 0.01 0.02 0.02 0.03 0.04 0.04 0.04 0.06 0.07 0.06 0.06 0.05 0.05 0.05 0.05 0.05
0.00 0.00 0.00 0.00 0.00 0.00 0.00 0.00 0.00 0.00 0.00 0.00 0.00 0.00 0.00 0.00 0.00 0.00 0.00 0.00 0.00 0.00 0.00 0.00 0.00 0.00 0.00 0.00 0.00 0.01 0.01 0.01 0.02 0.02 0.03 0.03 0.04 0.05 0.04 0.04 0.04 0.05 0.05 0.04
0.00 0.00 0.00 0.00 0.00 0.00 0.00 0.00 0.00 0.00 0.00 0.00 0.00 0.00 0.00 0.00 0.00 0.00 0.00 0.00 0.00 0.00 0.00 0.00 0.00 0.00 0.00 0.00 0.00 0.00 0.00 0.00 0.01 0.01 0.02 0.02 0.02 0.02 0.03 0.03 0.03 0.03 0.03 0.04
0.00 0.00 0.00 0.00 0.00 0.00 0.00 0.00 0.00 0.00 0.00 0.00 0.00 0.00 0.00 0.00 0.00 0.00 0.00 0.00 0.00 0.00 0.00 0.00 0.00 0.00 0.00 0.00 0.00 0.00 0.00 0.00 0.00 0.01 0.01 0.02 0.01 0.02 0.02 0.03 0.03 0.03 0.03 0.03
0.00 0.00 0.00 0.00 0.00 0.00 0.00 0.00 0.00 0.00 0.00 0.00 0.00 0.00 0.00 0.00 0.00 0.00 0.00 0.00 0.00 0.00 0.00 0.00 0.00 0.00 0.00 0.00 0.00 0.00 0.00 0.00 0.00 0.01 0.01 0.02 0.01 0.01 0.02 0.03 0.03 0.03 0.03 0.02
0.00 0.00 0.00 0.00 0.00 0.00 0.00 0.00 0.01 0.01 0.01 0.01 0.00 0.00 0.01 0.01 0.01 0.00 0.00 0.00 0.00 0.00 0.00 0.00 0.00 0.00 0.00 0.00 0.00 0.00 0.00 0.00 0.00 0.00 0.01 0.02 0.02 0.01 0.01 0.03 0.03 0.03 0.02 0.02
MSLP
1009.71 1009.88 1010.03 1010.18 1010.35 1010.52 1010.67 1010.78 1010.82 1010.77 1010.63 1010.42 1010.15 1009.89 1009.67 1009.52 1009.46 1009.49 1009.57 1009.68 1009.77 1009.79 1009.72 1009.55 1009.29 1008.97 1008.62 1008.27 1007.97 1007.71 1007.50 1007.32 1007.15 1006.96 1006.74 1006.47 1006.17 1005.85 1005.56 1005.31 1005.14 1005.07 1005.09 1005.20
1010.16 1010.40 1010.59 1010.74 1010.85 1010.95 1011.01 1011.04 1011.02 1010.94 1010.81 1010.64 1010.45 1010.26 1010.11 1010.01 1009.97 1009.98 1010.01 1010.03 1010.02 1009.95 1009.80 1009.56 1009.27 1008.93 1008.58 1008.25 1007.96 1007.72 1007.52 1007.33 1007.15 1006.94 1006.70 1006.40 1006.07 1005.73 1005.40 1005.12 1004.91 1004.79 1004.77 1004.82
1010.44 1010.73 1010.94 1011.08 1011.18 1011.23 1011.24 1011.22 1011.17 1011.09 1010.98 1010.85 1010.72 1010.60 1010.51 1010.44 1010.40 1010.37 1010.34 1010.29 1010.19 1010.02 1009.79 1009.50 1009.16 1008.80 1008.45 1008.13 1007.85 1007.61 1007.40 1007.21 1007.01 1006.78 1006.51 1006.19 1005.83 1005.46 1005.11 1004.79 1004.55 1004.38 1004.31 1004.33
1010.53 1010.82 1011.04 1011.18 1011.26 1011.29 1011.28 1011.25 1011.20 1011.13 1011.06 1010.98 1010.90 1010.84 1010.79 1010.74 1010.70 1010.65 1010.57 1010.45 1010.28 1010.04 1009.74 1009.39 1009.01 1008.63 1008.26 1007.92 1007.62 1007.37 1007.14 1006.93 1006.70 1006.45 1006.15 1005.81 1005.43 1005.03 1004.65 1004.31 1004.04 1003.84 1003.73 1003.72
1010.41 1010.68 1010.88 1011.01 1011.09 1011.12 1011.11 1011.09 1011.06 1011.02 1010.99 1010.96 1010.94 1010.93 1010.92 1010.91 1010.88 1010.82 1010.72 1010.56 1010.33 1010.04 1009.69 1009.29 1008.87 1008.45 1008.04 1007.67 1007.34 1007.05 1006.78 1006.53 1006.27 1005.98 1005.66 1005.29 1004.90 1004.49 1004.09 1003.73 1003.44 1003.22 1003.09 1003.06
1010.13 1010.35 1010.52 1010.64 1010.71 1010.76 1010.78 1010.78 1010.78 1010.79 1010.80 1010.82 1010.86 1010.90 1010.93 1010.96 1010.95 1010.91 1010.80 1010.63 1010.38 1010.06 1009.67 1009.23 1008.77 1008.30 1007.84 1007.42 1007.04 1006.69 1006.38 1006.08 1005.77 1005.45 1005.10 1004.72 1004.32 1003.91 1003.51 1003.15 1002.84 1002.62 1002.49 1002.45
1009.71 1009.87 1010.01 1010.13 1010.22 1010.29 1010.34 1010.38 1010.43 1010.47 1010.53 1010.60 1010.68 1010.77 1010.85 1010.92 1010.95 1010.93 1010.85 1010.68 1010.43 1010.10 1009.70 1009.23 1008.73 1008.21 1007.70 1007.22 1006.77 1006.36 1005.99 1005.63 1005.29 1004.94 1004.58 1004.19 1003.79 1003.39 1003.00 1002.65 1002.36 1002.14 1002.02 1001.98
1009.22 1009.33 1009.45 1009.57 1009.69 1009.79 1009.89 1009.98 1010.07 1010.16 1010.26 1010.37 1010.49 1010.61 1010.73 1010.83 1010.90 1010.92 1010.86 1010.73 1010.50 1010.17 1009.77 1009.28 1008.75 1008.19 1007.63 1007.08 1006.57 1006.10 1005.67 1005.26 1004.88 1004.51 1004.14 1003.77 1003.39 1003.01 1002.65 1002.33 1002.06 1001.86 1001.75 1001.73
1008.68 1008.77 1008.89 1009.03 1009.19 1009.35 1009.51 1009.65 1009.79 1009.92 1010.04 1010.17 1010.31 1010.45 1010.59 1010.72 1010.82 1010.87 1010.86 1010.75 1010.55 1010.25 1009.86 1009.37 1008.82 1008.23 1007.63 1007.03 1006.46 1005.93 1005.44 1005.00 1004.59 1004.21 1003.85 1003.49 1003.14 1002.81 1002.49 1002.21 1001.98 1001.81 1001.72 1001.71
1008.12 1008.21 1008.35 1008.55 1008.77 1009.00 1009.22 1009.42 1009.60 1009.76 1009.90 1010.04 1010.18 1010.32 1010.46 1010.60 1010.72 1010.80 1010.81 1010.75 1010.59 1010.32 1009.94 1009.47 1008.92 1008.32 1007.68 1007.04 1006.43 1005.85 1005.33 1004.85 1004.43 1004.04 1003.70 1003.37 1003.07 1002.78 1002.52 1002.29 1002.10 1001.97 1001.90 1001.90
1007.54 1007.65 1007.85 1008.11 1008.41 1008.72 1009.01 1009.27 1009.50 1009.68 1009.83 1009.97 1010.09 1010.21 1010.34 1010.47 1010.59 1010.68 1010.72 1010.69 1010.57 1010.34 1010.00 1009.56 1009.02 1008.41 1007.77 1007.11 1006.46 1005.85 1005.30 1004.80 1004.37 1003.99 1003.66 1003.37 1003.11 1002.88 1002.68 1002.51 1002.37 1002.28 1002.23 1002.24
1006.92 1007.08 1007.35 1007.69 1008.08 1008.47 1008.84 1009.17 1009.43 1009.64 1009.80 1009.92 1010.02 1010.11 1010.21 1010.32 1010.43 1010.53 1010.58 1010.58 1010.50 1010.31 1010.01 1009.60 1009.09 1008.50 1007.86 1007.20 1006.54 1005.91 1005.34 1004.83 1004.39 1004.01 1003.70 1003.45 1003.24 1003.06 1002.92 1002.80 1002.71 1002.65 1002.63 1002.63
1006.24 1006.46 1006.80 1007.23 1007.71 1008.20 1008.65 1009.03 1009.35 1009.58 1009.74 1009.85 1009.93 1009.99 1010.07 1010.15 1010.24 1010.33 1010.40 1010.42 1010.37 1010.22 1009.97 1009.60 1009.13 1008.57 1007.95 1007.30 1006.64 1006.00 1005.42 1004.90 1004.45 1004.08 1003.79 1003.56 1003.38 1003.25 1003.15 1003.09 1003.04 1003.01 1003.01 1003.01
1005.49 1005.78 1006.20 1006.71 1007.28 1007.85 1008.37 1008.83 1009.19 1009.45 1009.63 1009.74 1009.80 1009.85 1009.89 1009.96 1010.03 1010.12 1010.19 1010.23 1010.20 1010.10 1009.89 1009.57 1009.15 1008.63 1008.03 1007.40 1006.75 1006.12 1005.53 1005.00 1004.55 1004.18 1003.89 1003.67 1003.52 1003.41 1003.35 1003.32 1003.31 1003.30 1003.30 1003.29
1004.73 1005.07 1005.55 1006.13 1006.77 1007.41 1008.00 1008.52 1008.93 1009.24 1009.44 1009.57 1009.63 1009.68 1009.71 1009.76 1009.83 1009.91 1009.98 1010.03 1010.04 1009.96 1009.79 1009.52 1009.14 1008.66 1008.11 1007.50 1006.87 1006.25 1005.66 1005.13 1004.67 1004.29 1003.99 1003.78 1003.63 1003.54 1003.49 1003.48 1003.48 1003.48 1003.48 1003.46
1004.01 1004.38 1004.91 1005.53 1006.22 1006.91 1007.56 1008.13 1008.60 1008.95 1009.20 1009.35 1009.44 1009.50 1009.54 1009.59 1009.65 1009.73 1009.81 1009.87 1009.89 1009.84 1009.70 1009.47 1009.13 1008.70 1008.18 1007.61 1007.00 1006.39 1005.81 1005.27 1004.81 1004.41 1004.11 1003.88 1003.72 1003.62 1003.57 1003.55 1003.55 1003.55 1003.54 1003.50
1003.42 1003.81 1004.34 1004.98 1005.69 1006.41 1007.09 1007.70 1008.22 1008.62 1008.92 1009.12 1009.25 1009.34 1009.41 1009.47 1009.53 1009.61 1009.69 1009.75 1009.77 1009.74 1009.62 1009.42 1009.12 1008.72 1008.25 1007.71 1007.13 1006.54 1005.97 1005.44 1004.97 1004.56 1004.23 1003.98 1003.80 1003.68 1003.60 1003.56 1003.54 1003.51 1003.48 1003.42
1003.06 1003.42 1003.94 1004.56 1005.25 1005.97 1006.67 1007.30 1007.85 1008.30 1008.65 1008.91 1009.09 1009.22 1009.31 1009.40 1009.47 1009.55 1009.63 1009.68 1009.70 1009.66 1009.56 1009.37 1009.10 1008.74 1008.30 1007.79 1007.25 1006.69 1006.14 1005.62 1005.14 1004.72 1004.37 1004.09 1003.87 1003.71 1003.60 1003.52 1003.45 1003.39 1003.32 1003.23
1002.99 1003.30 1003.76 1004.33 1004.97 1005.65 1006.33 1006.96 1007.53 1008.01 1008.41 1008.71 1008.95 1009.12 1009.25 1009.36 1009.45 1009.53 1009.59 1009.63 1009.64 1009.60 1009.49 1009.32 1009.06 1008.73 1008.32 1007.86 1007.35 1006.82 1006.29 1005.78 1005.31 1004.88 1004.51 1004.20 1003.95 1003.74 1003.58 1003.44 1003.32 1003.21 1003.10 1002.98
1003.21 1003.45 1003.81 1004.29 1004.85 1005.46 1006.08 1006.68 1007.24 1007.74 1008.16 1008.51 1008.79 1009.00 1009.17 1009.30 1009.41 1009.49 1009.55 1009.57 1009.57 1009.51 1009.40 1009.23 1008.99 1008.68 1008.30 1007.88 1007.41 1006.92 1006.42 1005.93 1005.47 1005.03 1004.65 1004.31 1004.02 1003.76 1003.55 1003.36 1003.18 1003.02 1002.86 1002.70
1003.66 1003.79 1004.04 1004.40 1004.84 1005.35 1005.89 1006.43 1006.96 1007.44 1007.87 1008.24 1008.55 1008.80 1009.00 1009.16 1009.28 1009.37 1009.42 1009.44 1009.43 1009.36 1009.25 1009.09 1008.86 1008.58 1008.24 1007.85 1007.42 1006.97 1006.51 1006.04 1005.60 1005.17 1004.77 1004.41 1004.09 1003.80 1003.54 1003.30 1003.08 1002.87 1002.67 1002.47
1004.22 1004.24 1004.35 1004.57 1004.87 1005.25 1005.67 1006.13 1006.59 1007.03 1007.45 1007.82 1008.15 1008.43 1008.66 1008.85 1008.99 1009.10 1009.16 1009.19 1009.18 1009.13 1009.03 1008.88 1008.68 1008.42 1008.12 1007.78 1007.40 1006.99 1006.56 1006.13 1005.71 1005.29 1004.90 1004.53 1004.19 1003.87 1003.58 1003.31 1003.06 1002.82 1002.59 1002.37
1004.76 1004.65 1004.62 1004.68 1004.82 1005.05 1005.35 1005.69 1006.06 1006.45 1006.83 1007.20 1007.53 1007.83 1008.10 1008.32 1008.50 1008.64 1008.74 1008.80 1008.81 1008.79 1008.72 1008.61 1008.44 1008.24 1007.98 1007.68 1007.35 1006.99 1006.61 1006.22 1005.82 1005.43 1005.05 1004.69 1004.35 1004.03 1003.73 1003.45 1003.18 1002.93 1002.70 1002.47
1005.16 1004.91 1004.73 1004.63 1004.62 1004.69 1004.84 1005.06 1005.34 1005.65 1005.99 1006.33 1006.67 1006.99 1007.28 1007.55 1007.78 1007.98 1008.13 1008.25 1008.32 1008.36 1008.34 1008.29 1008.18 1008.03 1007.84 1007.60 1007.32 1007.01 1006.68 1006.33 1005.98 1005.62 1005.27 1004.93 1004.61 1004.31 1004.02 1003.76 1003.51 1003.27 1003.06 1002.85
1005.32 1004.95 1004.63 1004.38 1004.21 1004.13 1004.14 1004.24 1004.41 1004.64 1004.93 1005.25 1005.59 1005.93 1006.27 1006.59 1006.89 1007.16 1007.39 1007.59 1007.75 1007.87 1007.93 1007.96 1007.93 1007.85 1007.73 1007.56 1007.35 1007.10 1006.82 1006.53 1006.22 1005.90 1005.60 1005.30 1005.02 1004.75 1004.51 1004.28 1004.07 1003.88 1003.70 1003.53
1005.25 1004.77 1004.32 1003.94 1003.63 1003.41 1003.29 1003.27 1003.35 1003.51 1003.74 1004.04 1004.38 1004.75 1005.13 1005.52 1005.90 1006.26 1006.60 1006.90 1007.16 1007.38 1007.55 1007.67 1007.73 1007.74 1007.70 1007.60 1007.46 1007.28 1007.07 1006.83 1006.58 1006.32 1006.06 1005.82 1005.59 1005.38 1005.19 1005.02 1004.87 1004.73 1004.61 1004.50
1004.98 1004.41 1003.87 1003.38 1002.96 1002.63 1002.40 1002.28 1002.27 1002.37 1002.56 1002.84 1003.19 1003.59 1004.03 1004.49 1004.95 1005.41 1005.85 1006.27 1006.64 1006.97 1007.25 1007.47 1007.64 1007.74 1007.79 1007.77 1007.71 1007.60 1007.45 1007.27 1007.08 1006.88 1006.69 1006.50 1006.33 1006.19 1006.06 1005.96 1005.87 1005.80 1005.74 1005.68
Thickness
5774 5781 5781 5774 5770 5767 5756 5748 5737 5735 5735 5730 5729 5725 5720 5715 5709 5702 5693 5685 5677 5669 5662 5656 5650 5644 5638 5632 5626 5620 5614 5608 5603 5599 5594 5589 5584 5579 5574 5571 5569 5567 5567 5567
5765 5773 5775 5769 5768 5763 5756 5750 5743 5737 5731 5734 5731 5724 5716 5710 5703 5692 5684 5677 5670 5662 5655 5648 5642 5636 5630 5623 5617 5611 5605 5599 5594 5588 5582 5576 5571 5566 5562 5558 5555 5553 5553 5552
5752 5765 5765 5750 5761 5756 5750 5749 5740 5727 5725 5729 5721 5714 5708 5703 5693 5683 5676 5669 5662 5654 5648 5642 5636 5629 5622 5616 5610 5603 5597 5591 5585 5578 5572 5566 5561 5556 5551 5547 5544 5542 5541 5541
5755 5753 5727 5749 5773 5764 5749 5745 5745 5735 5728 5723 5716 5712 5707 5698 5686 5677 5670 5662 5656 5649 5643 5637 5630 5623 5615 5608 5602 5595 5589 5583 5576 5569 5563 5557 5551 5547 5542 5539 5535 5533 5532 5532
5747 5743 5746 5750 5760 5756 5740 5733 5738 5728 5723 5720 5717 5710 5703 5694 5684 5674 5666 5658 5651 5645 5638 5631 5623 5616 5608 5602 5595 5589 5582 5575 5569 5562 5555 5550 5545 5540 5536 5532 5530 5528 5527 5526
5747 5734 5730 5744 5761 5765 5747 5722 5728 5726 5718 5713 5708 5691 5690 5690 5681 5671 5662 5654 5647 5640 5632 5624 5617 5609 5601 5595 5589 5582 5576 5569 5563 5556 5550 5545 5541 5536 5532 5528 5526 5524 5524 5523
5743 5738 5746 5756 5764 5758 5724 5711 5726 5724 5717 5710 5697 5689 5689 5685 5675 5666 5657 5650 5642 5634 5625 5618 5611 5604 5596 5589 5583 5577 5570 5564 5559 5553 5547 5543 5538 5534 5529 5526 5524 5522 5521 5521
5745 5733 5730 5759 5755 5735 5725 5731 5728 5722 5716 5707 5699 5694 5687 5679 5669 5661 5653 5645 5637 5629 5621 5614 5607 5599 5592 5585 5579 5573 5567 5561 5556 5551 5546 5543 5536 5533 5529 5525 5522 5521 5519 5519
5749 5743 5753 5759 5750 5745 5740 5730 5725 5720 5713 5705 5696 5689 5682 5673 5665 5657 5648 5640 5632 5624 5617 5610 5602 5594 5587 5581 5575 5569 5563 5558 5554 5550 5545 5540 5536 5532 5529 5525 5521 5520 5518 5518
5752 5756 5758 5757 5753 5747 5740 5730 5725 5719 5711 5702 5692 5685 5677 5668 5661 5652 5644 5636 5628 5620 5612 5605 5598 5591 5584 5577 5571 5565 5561 5557 5553 5549 5545 5541 5536 5532 5528 5525 5522 5519 5517 5516
5749 5754 5755 5753 5749 5743 5737 5731 5723 5716 5708 5699 5690 5681 5673 5664 5656 5648 5640 5632 5625 5616 5608 5601 5594 5588 5581 5575 5568 5563 5559 5555 5552 5549 5544 5540 5537 5532 5528 5524 5519 5516 5515 5514
5748 5755 5748 5745 5747 5743 5732 5725 5718 5710 5702 5696 5688 5678 5670 5661 5653 5645 5637 5629 5621 5613 5605 5598 5592 5585 5579 5573 5567 5561 5558 5555 5552 5549 5545 5541 5537 5534 5528 5524 5519 5515 5511 5509
5764 5764 5757 5751 5746 5740 5731 5724 5717 5708 5700 5691 5685 5676 5667 5658 5650 5642 5634 5626 5618 5610 5603 5597 5590 5583 5578 5572 5566 5562 5558 5555 5553 5550 5546 5542 5539 5535 5532 5528 5521 5516 5512 5508
5767 5759 5747 5744 5740 5736 5730 5723 5715 5707 5700 5691 5682 5673 5664 5655 5647 5639 5631 5624 5616 5609 5602 5595 5588 5582 5577 5572 5568 5564 5561 5559 5555 5552 5549 5545 5542 5538 5535 5531 5527 5523 5516 5510
5761 5756 5748 5745 5739 5733 5725 5718 5709 5702 5695 5686 5679 5669 5659 5651 5643 5636 5630 5622 5614 5608 5601 5594 5587 5582 5577 5573 5569 5566 5564 5561 5558 5555 5553 5549 5546 5543 5539 5535 5531 5527 5523 5516
5756 5753 5748 5740 5732 5727 5721 5713 5704 5697 5690 5682 5673 5664 5656 5649 5641 5634 5627 5620 5612 5605 5599 5592 5586 5581 5577 5574 5570 5568 5566 5563 5560 5558 5557 5554 5550 5547 5543 5538 5535 5531 5527 5523
5748 5741 5738 5733 5729 5723 5718 5711 5703 5695 5687 5677 5669 5661 5654 5646 5638 5632 5624 5618 5610 5604 5598 5591 5585 5580 5577 5575 5571 5570 5568 5566 5563 5562 5560 5557 5554 5551 5547 5543 5539 5535 5530 5526
5751 5747 5742 5735 5728 5722 5716 5709 5701 5692 5682 5674 5666 5658 5649 5642 5634 5628 5622 5615 5610 5604 5597 5591 5584 5579 5578 5576 5571 5570 5569 5568 5567 5565 5563 5561 5557 5555 5552 5549 5545 5540 5535 5531
5747 5743 5739 5734 5728 5720 5712 5704 5696 5687 5679 5670 5661 5652 5646 5639 5632 5626 5620 5614 5608 5602 5595 5590 5582 5581 5579 5576 5571 5572 5572 5571 5569 5568 5567 5563 5562 5560 5557 5553 5549 5546 5542 5537
5737 5735 5731 5727 5722 5714 5706 5698 5690 5681 5673 5665 5656 5649 5642 5636 5630 5624 5618 5612 5607 5598 5592 5588 5584 5582 5579 5576 5570 5573 5573 5572 5571 5570 5568 5566 5564 5563 5560 5557 5554 5551 5548 5544
5724 5722 5719 5715 5710 5705 5698 5691 5682 5674 5667 5660 5651 5644 5639 5633 5628 5622 5616 5611 5605 5595 5591 5588 5584 5580 5577 5572 5571 5574 5575 5574 5573 5571 5569 5567 5566 5565 5563 5561 5558 5556 5553 5550
5709 5708 5706 5703 5699 5694 5689 5682 5675 5668 5662 5655 5649 5643 5636 5630 5626 5621 5616 5608 5603 5591 5589 5589 5584 5576 5572 5570 5575 5576 5575 5574 5573 5572 5571 5569 5568 5567 5565 5564 5562 5560 5559 5557
5693 5693 5692 5690 5687 5683 5680 5675 5669 5663 5656 5650 5644 5638 5632 5626 5622 5617 5612 5607 5601 5590 5588 5586 5578 5574 5570 5574 5577 5576 5575 5574 5573 5573 5572 5571 5570 5569 5568 5567 5566 5564 5563 5562
5678 5678 5678 5678 5677 5673 5669 5667 5664 5658 5653 5647 5642 5636 5629 5623 5620 5618 5612 5600 5594 5588 5588 5582 5576 5574 5571 5575 5575 5574 5573 5572 5571 5571 5572 5572 5572 5571 5569 5568 5567 5566 5565 5565
5664 5665 5666 5665 5663 5663 5662 5659 5656 5652 5647 5643 5639 5634 5629 5623 5618 5614 5607 5601 5592 5587 5587 5582 5575 5573 5573 5574 5573 5571 5570 5569 5568 5568 5569 5569 5570 5570 5569 5569 5568 5568 5567 5566
5652 5653 5656 5655 5656 5655 5655 5653 5650 5647 5643 5638 5634 5631 5627 5621 5614 5608 5603 5599 5593 5585 5583 5581 5578 5573 5572 5571 5568 5566 5566 5566 5567 5567 5566 5567 5568 5568 5568 5568 5568 5567 5567 5566
5641 5643 5645 5647 5649 5650 5649 5648 5644 5641 5638 5633 5628 5625 5620 5615 5608 5603 5598 5594 5590 5585 5581 5577 5574 5571 5568 5566 5563 5561 5561 5561 5560 5561 5562 5563 5564 5565 5565 5566 5566 5566 5566 5565